Philadelphia Wings Airport, PA

6:46 AM EDT on October 19, 2019 (GMT -0400)
Philadelphia Wings Airport

Weather History for KLOM - August, 2019

Change the Weather History Date:

Thursday, August 8, 2019

  Actual Average (KPNE) Record (KPNE)
Temperature  
Mean Temperature 76 °F -  
Max Temperature 85 °F 83 °F 99 °F (2001)
Min Temperature 67 °F 65 °F 55 °F (1997)
Cooling Degree Days 11    
Growing Degree Days 26 (Base 50)    
Moisture  
Dew Point 68 °F    
Average Humidity 82    
Maximum Humidity 100    
Minimum Humidity 55    
Precipitation  
Precipitation 0.00 in - - ()
Sea Level Pressure  
Sea Level Pressure 29.76 in    
Wind  
Wind Speed 3 mph (WSW)    
Max Wind Speed 12 mph    
Max Gust Speed 21 mph    
Visibility 7 miles    
Events Rain    
Averages and records for this station are not official NWS values.
T = Trace of Precipitation, MM = Missing Value Source: NWS Daily Summary

Daily Weather History Graph

Daily Weather History Graph

Search for Another Location

Airport or City:

Astronomy

Aug. 08, 2019 Rise Set
Actual Time 6:05 AM EDT 8:07 PM EDT
Civil Twilight 5:35 AM EDT 8:36 PM EDT
Nautical Twilight 4:59 AM EDT 9:13 PM EDT
Astronomical Twilight 4:19 AM EDT 9:52 PM EDT
Moon 2:40 PM EDT (8/8) 12:26 AM EDT (8/8)
Length of Visible Light 15h 01m
Length of Day
14h 01m
First Quarter, 60% of the Moon is Illuminated
Aug 8
First Quarter
Aug 15
Full
Aug 23
Last Quarter
Aug 30
New
Sep 5
First Quarter

Hourly Weather History & Observations

Time (EDT) Temp. Heat Index Dew Point Humidity Pressure Visibility Wind Dir Wind Speed Gust Speed Precip Events Conditions
12:15 AM 68.5 °F - 68.0 °F 98% 29.80 in 5.0 mi Calm Calm - N/A   Mostly Cloudy
12:35 AM 68.0 °F - 68.0 °F 100% 29.80 in 1.2 mi Calm Calm - N/A   Scattered Clouds
12:55 AM 67.8 °F - 67.8 °F 100% 29.80 in 2.5 mi Calm Calm - N/A   Mostly Cloudy
1:15 AM 68.9 °F - 68.4 °F 98% 29.80 in 4.0 mi Calm Calm - N/A   Overcast
1:35 AM 68.0 °F - 68.0 °F 100% 29.80 in 3.0 mi Calm Calm - N/A   Overcast
1:55 AM 68.5 °F - 68.4 °F 99% 29.79 in 2.5 mi Calm Calm - N/A   Overcast
2:15 AM 68.4 °F - 68.2 °F 99% 29.79 in 2.5 mi Calm Calm - N/A   Overcast
2:35 AM 68.9 °F - 68.7 °F 99% 29.79 in 3.0 mi Calm Calm - N/A   Overcast
2:55 AM 69.3 °F - 68.4 °F 97% 29.78 in 4.0 mi West 3.5 mph - N/A   Overcast
3:15 AM 69.3 °F - 68.5 °F 98% 29.77 in 4.0 mi WSW 3.5 mph - N/A   Overcast
3:35 AM 68.9 °F - 68.2 °F 98% 29.77 in 5.0 mi West 4.6 mph - N/A   Overcast
3:55 AM 68.9 °F - 68.2 °F 98% 29.76 in 4.0 mi West 5.8 mph - N/A   Overcast
4:15 AM 68.9 °F - 68.0 °F 97% 29.77 in 4.0 mi West 3.5 mph - N/A   Overcast
4:35 AM 69.1 °F - 68.2 °F 97% 29.77 in 5.0 mi Calm Calm - N/A   Overcast
4:55 AM 68.9 °F - 68.4 °F 98% 29.76 in 4.0 mi WSW 3.5 mph - N/A   Overcast
5:15 AM 69.1 °F - 68.4 °F 98% 29.76 in 4.0 mi Calm Calm - N/A   Overcast
5:35 AM 68.7 °F - 68.0 °F 98% 29.77 in 4.0 mi Calm Calm - N/A   Overcast
5:55 AM 68.7 °F - 68.0 °F 98% 29.76 in 4.0 mi Calm Calm - N/A   Overcast
6:15 AM 68.4 °F - 67.8 °F 98% 29.77 in 2.5 mi Calm Calm - N/A   Mostly Cloudy
6:35 AM 68.7 °F - 68.2 °F 98% 29.77 in 3.0 mi WSW 3.5 mph - N/A   Overcast
6:55 AM 68.9 °F - 68.2 °F 98% 29.78 in 3.0 mi WSW 3.5 mph - N/A   Mostly Cloudy
7:15 AM 69.6 °F - 68.5 °F 96% 29.78 in 3.5 mi SSW 3.5 mph - N/A   Overcast
7:35 AM 70.0 °F - 68.9 °F 96% 29.79 in 3.5 mi Calm Calm - N/A   Overcast
7:55 AM 70.3 °F - 68.9 °F 95% 29.79 in 4.0 mi Calm Calm - N/A   Overcast
8:15 AM 70.7 °F - 68.9 °F 94% 29.79 in 4.0 mi SW 3.5 mph - N/A   Overcast
8:35 AM 71.4 °F - 69.3 °F 93% 29.79 in 5.0 mi West 3.5 mph - N/A   Overcast
8:55 AM 71.6 °F - 68.9 °F 91% 29.79 in 5.0 mi SW 3.5 mph - N/A   Overcast
9:15 AM 72.9 °F - 69.1 °F 88% 29.79 in 7.0 mi WSW 3.5 mph - N/A   Overcast
9:35 AM 72.9 °F - 68.9 °F 87% 29.78 in 7.0 mi Calm Calm - N/A   Overcast
9:55 AM 74.3 °F - 68.7 °F 83% 29.78 in 10.0 mi SW 4.6 mph - N/A   Mostly Cloudy
10:15 AM 75.0 °F - 69.1 °F 82% 29.79 in 10.0 mi SW 3.5 mph - N/A   Mostly Cloudy
10:35 AM 77.2 °F - 69.3 °F 76% 29.79 in 10.0 mi SSW 5.8 mph - N/A   Mostly Cloudy
10:55 AM 78.3 °F - 70.0 °F 76% 29.78 in 10.0 mi Calm Calm - N/A   Scattered Clouds
11:15 AM 79.0 °F - 69.1 °F 72% 29.78 in 10.0 mi WSW 4.6 mph - N/A   Scattered Clouds
11:35 AM 79.5 °F - 68.5 °F 69% 29.78 in 10.0 mi WSW 4.6 mph - N/A   Scattered Clouds
11:55 AM 80.6 °F 83.5 °F 68.7 °F 67% 29.78 in 10.0 mi WSW 4.6 mph - N/A   Mostly Cloudy
12:15 PM 81.7 °F 85.1 °F 69.3 °F 66% 29.77 in 10.0 mi WSW 6.9 mph - N/A   Scattered Clouds
12:35 PM 82.0 °F 85.1 °F 68.4 °F 63% 29.77 in 10.0 mi SSW 5.8 mph - N/A   Scattered Clouds
12:55 PM 82.4 °F 85.8 °F 69.3 °F 64% 29.76 in 10.0 mi SW 9.2 mph 16.1 mph N/A   Mostly Cloudy
1:15 PM 80.6 °F 83.4 °F 68.2 °F 66% 29.76 in 10.0 mi West 5.8 mph - N/A   Mostly Cloudy
1:35 PM 82.9 °F 87.0 °F 70.0 °F 65% 29.75 in 10.0 mi South 6.9 mph - N/A   Scattered Clouds
1:55 PM 83.1 °F 86.1 °F 68.0 °F 60% 29.75 in 10.0 mi West 6.9 mph - N/A   Scattered Clouds
2:15 PM 83.8 °F 87.3 °F 68.5 °F 60% 29.74 in 10.0 mi WSW 8.1 mph - N/A   Mostly Cloudy
2:35 PM 84.9 °F 87.9 °F 67.8 °F 56% 29.73 in 10.0 mi SW 10.4 mph - N/A   Scattered Clouds
2:55 PM 85.3 °F 88.2 °F 67.5 °F 55% 29.73 in 10.0 mi West 6.9 mph - N/A   Scattered Clouds
3:15 PM 84.6 °F 87.1 °F 66.6 °F 55% 29.73 in 10.0 mi WSW 8.1 mph 16.1 mph N/A   Scattered Clouds
3:35 PM 84.4 °F 86.8 °F 66.7 °F 55% 29.72 in 10.0 mi SW 11.5 mph 18.4 mph N/A   Scattered Clouds
3:55 PM 77.7 °F - 68.7 °F 74% 29.73 in 10.0 mi West 3.5 mph 20.7 mph N/A Rain Light Rain
4:15 PM 82.4 °F 86.1 °F 69.4 °F 65% 29.73 in 10.0 mi West 4.6 mph - N/A   Scattered Clouds
4:35 PM 81.5 °F 85.3 °F 70.5 °F 69% 29.73 in 10.0 mi SW 6.9 mph - N/A   Clear
4:55 PM 83.1 °F 86.3 °F 68.5 °F 61% 29.72 in 10.0 mi West 6.9 mph - N/A   Clear
5:35 PM 83.8 °F 87.3 °F 68.5 °F 60% 29.72 in 10.0 mi West 5.8 mph - N/A   Clear
5:55 PM 83.3 °F 86.4 °F 68.0 °F 60% 29.72 in 5.0 mi SW 8.1 mph - N/A   Haze
6:15 PM 83.8 °F 87.5 °F 68.9 °F 61% 29.73 in 10.0 mi WSW 5.8 mph - N/A   Scattered Clouds
6:35 PM 83.3 °F 86.4 °F 68.2 °F 60% 29.72 in 10.0 mi SW 4.6 mph - N/A   Clear
6:55 PM 81.0 °F 84.1 °F 69.1 °F 67% 29.73 in 10.0 mi SW 3.5 mph - N/A   Clear
7:15 PM 80.8 °F 83.3 °F 67.5 °F 64% 29.73 in 10.0 mi SSW 5.8 mph - N/A   Clear
7:35 PM 81.1 °F 83.5 °F 66.9 °F 62% 29.74 in 10.0 mi SW 6.9 mph - N/A   Mostly Cloudy
7:55 PM 79.9 °F - 64.9 °F 60% 29.76 in 10.0 mi West 5.8 mph - N/A   Mostly Cloudy
8:15 PM 77.9 °F - 65.3 °F 65% 29.75 in 10.0 mi WSW 5.8 mph - N/A   Scattered Clouds
8:35 PM 76.5 °F - 65.8 °F 70% 29.76 in 10.0 mi WSW 8.1 mph - N/A   Scattered Clouds
8:55 PM 75.2 °F - 66.7 °F 75% 29.76 in 10.0 mi WSW 3.5 mph - N/A   Mostly Cloudy
9:15 PM 75.0 °F - 67.1 °F 76% 29.76 in 10.0 mi Calm Calm - N/A   Overcast
9:35 PM 72.0 °F - 68.9 °F 90% 29.77 in 10.0 mi SW 3.5 mph - N/A   Scattered Clouds
9:55 PM 70.5 °F - 68.9 °F 95% 29.76 in 10.0 mi Calm Calm - N/A   Scattered Clouds
10:15 PM 69.8 °F - 68.7 °F 96% 29.76 in 10.0 mi Calm Calm - N/A   Scattered Clouds
10:35 PM 69.3 °F - 68.5 °F 98% 29.75 in 10.0 mi Calm Calm - N/A   Clear
10:55 PM 68.7 °F - 68.0 °F 98% 29.75 in 10.0 mi Calm Calm - N/A   Clear
11:10 PM 68.5 °F - 67.6 °F 97% 29.74 in 10.0 mi Calm Calm - N/A   Clear
11:35 PM 68.5 °F - 67.5 °F 96% 29.74 in 10.0 mi Calm Calm - N/A   Clear
11:55 PM 70.2 °F - 66.9 °F 89% 29.75 in 10.0 mi WSW 3.5 mph - N/A   Clear